Time,TemperatureF,DewpointF,PressureIn,WindDirection,WindDirectionDegrees,WindSpeedMPH,WindSpeedGustMPH,Humidity,HourlyPrecipIn,Conditions,Clouds,dailyrainin,SoftwareType,DateUTC
2013-03-30 00:01:00,35.9,26.7,30.26,SSE,155,0.0,0.0,69,0.00,,,0.00,Wunderground v.1.15,2013-03-30 04:01:00,
2013-03-30 00:05:00,35.4,26.2,30.26,SSE,155,0.0,0.0,69,0.00,,,0.00,Wunderground v.1.15,2013-03-30 04:05:00,
2013-03-30 00:15:00,35.0,26.9,30.26,SSE,155,0.0,0.0,72,0.00,,,0.00,Wunderground v.1.15,2013-03-30 04:15:00,
2013-03-30 00:20:00,34.9,26.4,30.26,SSE,155,0.0,0.0,71,0.00,,,0.00,Wunderground v.1.15,2013-03-30 04:20:00,
2013-03-30 00:30:00,34.1,26.0,30.26,SSE,155,0.0,0.0,72,0.00,,,0.00,Wunderground v.1.15,2013-03-30 04:30:00,
2013-03-30 00:40:00,33.7,25.6,30.26,SSE,155,0.0,0.0,72,0.00,,,0.00,Wunderground v.1.15,2013-03-30 04:40:00,
2013-03-30 00:50:00,33.7,26.3,30.26,SSE,155,0.0,0.0,74,0.00,,,0.00,Wunderground v.1.15,2013-03-30 04:50:00,
2013-03-30 00:55:00,33.6,26.2,30.26,SSE,155,0.0,0.0,74,0.00,,,0.00,Wunderground v.1.15,2013-03-30 04:55:00,
2013-03-30 01:01:00,33.3,25.9,30.26,SSE,155,0.0,0.0,74,0.00,,,0.00,Wunderground v.1.15,2013-03-30 05:01:00,
2013-03-30 01:10:00,33.1,26.0,30.26,SSE,155,0.0,0.0,75,0.00,,,0.00,Wunderground v.1.15,2013-03-30 05:10:00,
2013-03-30 01:20:00,33.2,25.8,30.26,SSW,203,0.0,0.0,74,0.00,,,0.00,Wunderground v.1.15,2013-03-30 05:20:00,
2013-03-30 01:25:00,32.9,25.5,30.26,SSW,203,0.0,0.0,74,0.00,,,0.00,Wunderground v.1.15,2013-03-30 05:25:00,
2013-03-30 01:35:00,32.8,26.1,30.26,SSW,203,0.0,0.0,76,0.00,,,0.00,Wunderground v.1.15,2013-03-30 05:35:00,
2013-03-30 01:45:00,32.7,26.0,30.26,SSW,203,0.0,0.0,76,0.00,,,0.00,Wunderground v.1.15,2013-03-30 05:45:00,
2013-03-30 01:50:00,32.4,25.7,30.26,SSW,203,0.0,0.0,76,0.00,,,0.00,Wunderground v.1.15,2013-03-30 05:50:00,
2013-03-30 02:05:00,33.3,24.9,30.26,WSW,242,0.0,0.0,71,0.00,,,0.00,Wunderground v.1.15,2013-03-30 06:05:00,
2013-03-30 02:15:00,33.6,24.9,30.26,WSW,242,0.0,0.0,70,0.00,,,0.00,Wunderground v.1.15,2013-03-30 06:15:00,
2013-03-30 02:20:00,33.3,24.9,30.26,WSW,242,0.0,0.0,71,0.00,,,0.00,Wunderground v.1.15,2013-03-30 06:20:00,
2013-03-30 02:30:00,32.6,24.6,30.26,WSW,242,0.0,0.0,72,0.00,,,0.00,Wunderground v.1.15,2013-03-30 06:30:00,
2013-03-30 02:40:00,32.8,24.4,30.26,WSW,242,0.0,0.0,71,0.00,,,0.00,Wunderground v.1.15,2013-03-30 06:40:00,
2013-03-30 02:45:00,32.8,24.1,30.26,WSW,242,0.0,0.0,70,0.00,,,0.00,Wunderground v.1.15,2013-03-30 06:45:00,
2013-03-30 02:55:00,32.2,23.8,30.26,WSW,242,0.0,0.0,71,0.00,,,0.00,Wunderground v.1.15,2013-03-30 06:55:00,
2013-03-30 03:00:00,32.0,23.7,30.26,WSW,242,0.0,0.0,71,0.00,,,0.00,Wunderground v.1.15,2013-03-30 07:00:00,
2013-03-30 03:10:00,32.6,23.9,30.26,WSW,242,0.0,0.0,70,0.00,,,0.00,Wunderground v.1.15,2013-03-30 07:10:00,
2013-03-30 03:20:00,32.4,23.7,30.26,WSW,242,0.0,0.0,70,0.00,,,0.00,Wunderground v.1.15,2013-03-30 07:20:00,
2013-03-30 03:30:00,31.4,23.4,30.26,WSW,242,0.0,0.0,72,0.00,,,0.00,Wunderground v.1.15,2013-03-30 07:30:00,
2013-03-30 03:35:00,31.0,23.4,30.26,WSW,242,0.0,0.0,73,0.00,,,0.00,Wunderground v.1.15,2013-03-30 07:35:00,
2013-03-30 03:45:00,31.6,23.6,30.25,NW,308,0.0,0.0,72,0.00,,,0.00,Wunderground v.1.15,2013-03-30 07:45:00,
2013-03-30 03:50:00,32.8,23.7,30.25,NW,308,0.0,0.0,69,0.00,,,0.00,Wunderground v.1.15,2013-03-30 07:50:00,
2013-03-30 04:00:00,32.4,23.7,30.25,NW,308,0.0,0.0,70,0.00,,,0.00,Wunderground v.1.15,2013-03-30 08:00:00,
2013-03-30 04:05:00,32.1,23.1,30.25,NW,308,0.0,0.0,69,0.00,,,0.00,Wunderground v.1.15,2013-03-30 08:05:00,
2013-03-30 04:15:00,31.9,22.9,30.25,NW,308,0.0,0.0,69,0.00,,,0.00,Wunderground v.1.15,2013-03-30 08:15:00,
2013-03-30 04:20:00,32.5,23.1,30.25,NW,308,0.0,0.0,68,0.00,,,0.00,Wunderground v.1.15,2013-03-30 08:20:00,
2013-03-30 04:30:00,33.7,23.2,30.25,NW,309,0.0,0.0,65,0.00,,,0.00,Wunderground v.1.15,2013-03-30 08:30:00,
2013-03-30 04:40:00,34.2,22.9,30.25,NW,309,0.0,0.0,63,0.00,,,0.00,Wunderground v.1.15,2013-03-30 08:40:00,
2013-03-30 04:50:00,34.0,23.1,30.25,NW,309,0.0,0.0,64,0.00,,,0.00,Wunderground v.1.15,2013-03-30 08:50:00,
2013-03-30 04:55:00,33.9,23.0,30.24,NW,309,0.0,0.0,64,0.00,,,0.00,Wunderground v.1.15,2013-03-30 08:55:00,
2013-03-30 05:01:00,33.7,22.8,30.24,NW,309,0.0,0.0,64,0.00,,,0.00,Wunderground v.1.15,2013-03-30 09:01:00,
2013-03-30 05:10:00,32.8,22.7,30.24,NW,309,0.0,0.0,66,0.00,,,0.00,Wunderground v.1.15,2013-03-30 09:10:00,
2013-03-30 05:20:00,32.7,22.6,30.24,NW,309,0.0,0.0,66,0.00,,,0.00,Wunderground v.1.15,2013-03-30 09:20:00,
2013-03-30 05:25:00,32.6,22.8,30.24,NW,309,0.0,0.0,67,0.00,,,0.00,Wunderground v.1.15,2013-03-30 09:25:00,
2013-03-30 05:35:00,31.4,22.7,30.24,NW,309,0.0,0.0,70,0.00,,,0.00,Wunderground v.1.15,2013-03-30 09:35:00,
2013-03-30 05:40:00,30.9,22.6,30.25,NW,309,0.0,0.0,71,0.00,,,0.00,Wunderground v.1.15,2013-03-30 09:40:00,
2013-03-30 05:51:00,31.1,23.1,30.25,NW,309,0.0,0.0,72,0.00,,,0.00,Wunderground v.1.15,2013-03-30 09:51:00,
2013-03-30 06:01:00,30.8,23.2,30.24,NW,309,0.0,0.0,73,0.00,,,0.00,Wunderground v.1.15,2013-03-30 10:01:00,
2013-03-30 06:05:00,30.5,23.2,30.24,NW,309,0.0,0.0,74,0.00,,,0.00,Wunderground v.1.15,2013-03-30 10:05:00,
2013-03-30 06:10:00,30.2,22.9,30.24,NW,309,0.0,0.0,74,0.00,,,0.00,Wunderground v.1.15,2013-03-30 10:10:00,
2013-03-30 06:20:00,30.6,23.0,30.25,NW,309,0.0,0.0,73,0.00,,,0.00,Wunderground v.1.15,2013-03-30 10:20:00,
2013-03-30 06:31:00,31.0,23.0,30.25,NW,309,0.0,0.0,72,0.00,,,0.00,Wunderground v.1.15,2013-03-30 10:31:00,
2013-03-30 06:40:00,30.8,22.8,30.25,NW,309,0.0,0.0,72,0.00,,,0.00,Wunderground v.1.15,2013-03-30 10:40:00,
2013-03-30 06:45:00,30.7,22.7,30.25,NW,309,0.0,0.0,72,0.00,,,0.00,Wunderground v.1.15,2013-03-30 10:45:00,
2013-03-30 06:55:00,30.7,22.7,30.25,West,281,0.0,1.0,72,0.00,,,0.00,Wunderground v.1.15,2013-03-30 10:55:00,
2013-03-30 07:01:00,31.1,22.8,30.25,West,281,0.0,0.0,71,0.00,,,0.00,Wunderground v.1.15,2013-03-30 11:01:00,
2013-03-30 07:10:00,31.2,22.5,30.26,West,281,0.0,0.0,70,0.00,,,0.00,Wunderground v.1.15,2013-03-30 11:10:00,
2013-03-30 07:15:00,30.9,22.9,30.26,West,281,0.0,0.0,72,0.00,,,0.00,Wunderground v.1.15,2013-03-30 11:15:00,
2013-03-30 07:25:00,30.0,22.4,30.26,SSW,209,0.0,0.0,73,0.00,,,0.00,Wunderground v.1.15,2013-03-30 11:25:00,
2013-03-30 07:30:00,29.6,22.3,30.26,SSW,209,0.0,0.0,74,0.00,,,0.00,Wunderground v.1.15,2013-03-30 11:30:00,
2013-03-30 07:41:00,29.1,22.5,30.27,SSW,209,0.0,1.0,76,0.00,,,0.00,Wunderground v.1.15,2013-03-30 11:41:00,
2013-03-30 07:50:00,29.4,22.8,30.27,SSW,208,0.0,0.0,76,0.00,,,0.00,Wunderground v.1.15,2013-03-30 11:50:00,
2013-03-30 07:55:00,29.6,23.0,30.27,SSW,208,0.0,0.0,76,0.00,,,0.00,Wunderground v.1.15,2013-03-30 11:55:00,
2013-03-30 08:01:00,30.0,23.0,30.27,SSW,208,0.0,0.0,75,0.00,,,0.00,Wunderground v.1.15,2013-03-30 12:01:00,
2013-03-30 08:10:00,31.3,23.6,30.27,SSW,208,0.0,0.0,73,0.00,,,0.00,Wunderground v.1.15,2013-03-30 12:10:00,
2013-03-30 08:20:00,32.4,24.0,30.28,SW,229,0.0,0.0,71,0.00,,,0.00,Wunderground v.1.15,2013-03-30 12:20:00,
2013-03-30 08:25:00,33.0,24.3,30.28,SW,229,0.0,0.0,70,0.00,,,0.00,Wunderground v.1.15,2013-03-30 12:25:00,
2013-03-30 08:35:00,33.9,24.4,30.27,West,261,1.0,2.0,68,0.00,,,0.00,Wunderground v.1.15,2013-03-30 12:35:00,
2013-03-30 08:45:00,34.8,24.6,30.27,SW,229,1.0,2.0,66,0.00,,,0.00,Wunderground v.1.15,2013-03-30 12:45:00,
2013-03-30 08:50:00,35.3,24.7,30.27,West,264,1.0,1.0,65,0.00,,,0.00,Wunderground v.1.15,2013-03-30 12:50:00,
2013-03-30 09:00:00,36.4,25.0,30.27,SW,236,1.0,2.0,63,0.00,,,0.00,Wunderground v.1.15,2013-03-30 13:00:00,
2013-03-30 09:05:00,36.8,25.0,30.27,WSW,250,1.0,2.0,62,0.00,,,0.00,Wunderground v.1.15,2013-03-30 13:05:00,
2013-03-30 09:15:00,38.4,25.7,30.26,WSW,252,0.0,1.0,60,0.00,,,0.00,Wunderground v.1.15,2013-03-30 13:15:00,
2013-03-30 09:20:00,38.9,26.2,30.26,WNW,302,0.0,1.0,60,0.00,,,0.00,Wunderground v.1.15,2013-03-30 13:20:00,
2013-03-30 09:31:00,40.1,27.3,30.26,NW,311,1.0,1.0,60,0.00,,,0.00,Wunderground v.1.15,2013-03-30 13:31:00,
2013-03-30 09:40:00,40.1,26.1,30.26,NW,307,2.0,2.0,57,0.00,,,0.00,Wunderground v.1.15,2013-03-30 13:40:00,
2013-03-30 09:45:00,40.7,26.2,30.26,WNW,297,2.0,2.0,56,0.00,,,0.00,Wunderground v.1.15,2013-03-30 13:45:00,
2013-03-30 09:55:00,41.0,25.6,30.25,NNE,12,2.0,3.0,54,0.00,,,0.00,Wunderground v.1.15,2013-03-30 13:55:00,
2013-03-30 10:01:00,41.1,25.7,30.25,NNW,341,2.0,2.0,54,0.00,,,0.00,Wunderground v.1.15,2013-03-30 14:01:00,
2013-03-30 10:10:00,42.4,26.0,30.24,North,4,1.0,1.0,52,0.00,,,0.00,Wunderground v.1.15,2013-03-30 14:10:00,
2013-03-30 10:21:00,44.0,25.5,30.24,North,359,1.0,1.0,48,0.00,,,0.00,Wunderground v.1.15,2013-03-30 14:21:00,
2013-03-30 10:30:00,46.2,26.0,30.23,SSE,160,0.0,0.0,45,0.00,,,0.00,Wunderground v.1.15,2013-03-30 14:30:00,
2013-03-30 10:40:00,48.2,26.7,30.23,NE,56,0.0,0.0,43,0.00,,,0.00,Wunderground v.1.15,2013-03-30 14:40:00,
2013-03-30 10:51:00,47.7,25.7,30.23,West,259,1.0,2.0,42,0.00,,,0.00,Wunderground v.1.15,2013-03-30 14:51:00,
2013-03-30 11:01:00,48.7,25.4,30.23,West,268,1.0,1.0,40,0.00,,,0.00,Wunderground v.1.15,2013-03-30 15:01:00,
2013-03-30 11:10:00,49.3,25.4,30.23,WSW,252,1.0,2.0,39,0.00,,,0.00,Wunderground v.1.15,2013-03-30 15:10:00,
2013-03-30 11:20:00,48.9,23.7,30.23,WSW,256,2.0,2.0,37,0.00,,,0.00,Wunderground v.1.15,2013-03-30 15:20:00,
2013-03-30 11:25:00,48.9,24.4,30.22,SW,231,2.0,4.0,38,0.00,,,0.00,Wunderground v.1.15,2013-03-30 15:25:00,
2013-03-30 11:36:00,48.8,24.9,30.22,SW,236,2.0,3.0,39,0.00,,,0.00,Wunderground v.1.15,2013-03-30 15:36:00,
2013-03-30 11:45:00,49.9,25.3,30.22,WSW,237,2.0,4.0,38,0.00,,,0.00,Wunderground v.1.15,2013-03-30 15:45:00,
2013-03-30 11:51:00,50.4,25.7,30.22,SW,217,2.0,3.0,38,0.00,,,0.00,Wunderground v.1.15,2013-03-30 15:51:00,
2013-03-30 12:01:00,51.2,26.4,30.22,SW,219,2.0,2.0,38,0.00,,,0.00,Wunderground v.1.15,2013-03-30 16:01:00,
2013-03-30 12:06:00,51.1,26.3,30.22,WSW,247,2.0,4.0,38,0.00,,,0.00,Wunderground v.1.15,2013-03-30 16:06:00,
2013-03-30 12:15:00,51.9,25.1,30.22,SW,221,2.0,3.0,35,0.00,,,0.00,Wunderground v.1.15,2013-03-30 16:15:00,
2013-03-30 12:26:00,51.9,25.1,30.21,SSW,212,2.0,5.0,35,0.00,,,0.00,Wunderground v.1.15,2013-03-30 16:26:00,
2013-03-30 12:35:00,52.3,27.4,30.21,SW,215,2.0,2.0,38,0.00,,,0.00,Wunderground v.1.15,2013-03-30 16:35:00,
2013-03-30 12:41:00,52.7,27.1,30.20,WSW,238,2.0,4.0,37,0.00,,,0.00,Wunderground v.1.15,2013-03-30 16:41:00,
2013-03-30 12:50:00,52.6,27.0,30.20,SSW,213,3.0,3.0,37,0.00,,,0.00,Wunderground v.1.15,2013-03-30 16:50:00,
2013-03-30 12:56:00,52.7,27.1,30.20,SW,217,3.0,4.0,37,0.00,,,0.00,Wunderground v.1.15,2013-03-30 16:56:00,
2013-03-30 13:01:00,52.7,26.5,30.19,SSE,150,3.0,3.0,36,0.00,,,0.00,Wunderground v.1.15,2013-03-30 17:01:00,
2013-03-30 13:11:00,52.7,26.5,30.19,SW,228,4.0,4.0,36,0.00,,,0.00,Wunderground v.1.15,2013-03-30 17:11:00,
2013-03-30 13:20:00,52.6,26.4,30.18,SSE,148,3.0,3.0,36,0.00,,,0.00,Wunderground v.1.15,2013-03-30 17:20:00,
2013-03-30 13:26:00,53.2,26.2,30.18,SE,126,3.0,3.0,35,0.00,,,0.00,Wunderground v.1.15,2013-03-30 17:26:00,
2013-03-30 13:35:00,53.4,25.0,30.18,SSW,206,2.0,3.0,33,0.00,,,0.00,Wunderground v.1.15,2013-03-30 17:35:00,
2013-03-30 13:40:00,53.7,25.2,30.18,SE,140,2.0,2.0,33,0.00,,,0.00,Wunderground v.1.15,2013-03-30 17:40:00,
2013-03-30 13:50:00,54.2,24.9,30.17,WSW,240,2.0,3.0,32,0.00,,,0.00,Wunderground v.1.15,2013-03-30 17:50:00,
2013-03-30 13:56:00,53.9,23.9,30.17,SSW,194,3.0,3.0,31,0.00,,,0.00,Wunderground v.1.15,2013-03-30 17:56:00,
2013-03-30 14:05:00,53.7,20.5,30.17,WSW,242,4.0,4.0,27,0.00,,,0.00,Wunderground v.1.15,2013-03-30 18:05:00,
2013-03-30 14:15:00,54.4,19.3,30.17,SW,234,4.0,4.0,25,0.00,,,0.00,Wunderground v.1.15,2013-03-30 18:15:00,
2013-03-30 14:25:00,55.2,19.0,30.16,SSW,203,3.0,4.0,24,0.00,,,0.00,Wunderground v.1.15,2013-03-30 18:25:00,
2013-03-30 14:35:00,55.3,17.0,30.15,WNW,295,4.0,5.0,22,0.00,,,0.00,Wunderground v.1.15,2013-03-30 18:35:00,
2013-03-30 14:40:00,55.4,18.2,30.15,SW,236,4.0,7.0,23,0.00,,,0.00,Wunderground v.1.15,2013-03-30 18:40:00,
2013-03-30 14:51:00,55.6,18.3,30.15,SW,224,5.0,7.0,23,0.00,,,0.00,Wunderground v.1.15,2013-03-30 18:51:00,
2013-03-30 15:01:00,55.7,21.3,30.15,WSW,237,4.0,4.0,26,0.00,,,0.00,Wunderground v.1.15,2013-03-30 19:01:00,
2013-03-30 15:10:00,56.1,21.6,30.14,SW,228,3.0,3.0,26,0.00,,,0.00,Wunderground v.1.15,2013-03-30 19:10:00,
2013-03-30 15:20:00,55.6,23.8,30.14,WSW,238,4.0,4.0,29,0.00,,,0.00,Wunderground v.1.15,2013-03-30 19:20:00,
2013-03-30 15:25:00,55.5,24.5,30.13,SW,224,3.0,5.0,30,0.00,,,0.00,Wunderground v.1.15,2013-03-30 19:25:00,
2013-03-30 15:35:00,55.7,24.7,30.13,ENE,66,3.0,3.0,30,0.00,,,0.00,Wunderground v.1.15,2013-03-30 19:35:00,
2013-03-30 15:41:00,55.9,25.7,30.13,SE,139,2.0,2.0,31,0.00,,,0.00,Wunderground v.1.15,2013-03-30 19:41:00,
2013-03-30 15:50:00,56.2,25.1,30.12,SW,214,3.0,6.0,30,0.00,,,0.00,Wunderground v.1.15,2013-03-30 19:50:00,
2013-03-30 15:55:00,56.5,27.7,30.12,NE,48,3.0,6.0,33,0.00,,,0.00,Wunderground v.1.15,2013-03-30 19:55:00,
2013-03-30 16:01:00,55.8,27.1,30.12,SW,218,3.0,3.0,33,0.00,,,0.00,Wunderground v.1.15,2013-03-30 20:01:00,
2013-03-30 16:11:00,55.9,28.6,30.11,ENE,66,2.0,2.0,35,0.00,,,0.00,Wunderground v.1.15,2013-03-30 20:11:00,
2013-03-30 16:20:00,55.0,29.2,30.10,SW,231,2.0,2.0,37,0.00,,,0.00,Wunderground v.1.15,2013-03-30 20:20:00,
2013-03-30 16:26:00,55.8,26.3,30.10,SSW,205,3.0,3.0,32,0.00,,,0.00,Wunderground v.1.15,2013-03-30 20:26:00,
2013-03-30 16:35:00,56.6,27.8,30.10,ENE,57,2.0,4.0,33,0.00,,,0.00,Wunderground v.1.15,2013-03-30 20:35:00,
2013-03-30 16:40:00,56.3,26.8,30.09,East,83,2.0,2.0,32,0.00,,,0.00,Wunderground v.1.15,2013-03-30 20:40:00,
2013-03-30 16:50:00,56.1,26.6,30.09,SE,142,2.0,2.0,32,0.00,,,0.00,Wunderground v.1.15,2013-03-30 20:50:00,
2013-03-30 16:55:00,55.7,27.0,30.09,SW,229,2.0,2.0,33,0.00,,,0.00,Wunderground v.1.15,2013-03-30 20:55:00,
2013-03-30 17:01:00,55.8,27.1,30.09,East,94,1.0,2.0,33,0.00,,,0.00,Wunderground v.1.15,2013-03-30 21:01:00,
2013-03-30 17:10:00,55.3,29.4,30.09,SE,128,2.0,2.0,37,0.00,,,0.00,Wunderground v.1.15,2013-03-30 21:10:00,
2013-03-30 17:15:00,54.9,29.1,30.08,SE,143,1.0,2.0,37,0.00,,,0.00,Wunderground v.1.15,2013-03-30 21:15:00,
2013-03-30 17:26:00,53.5,29.1,30.08,ENE,65,2.0,3.0,39,0.00,,,0.00,Wunderground v.1.15,2013-03-30 21:26:00,
2013-03-30 17:35:00,53.0,28.0,30.08,East,87,2.0,2.0,38,0.00,,,0.00,Wunderground v.1.15,2013-03-30 21:35:00,
2013-03-30 17:45:00,52.0,28.4,30.07,SW,228,2.0,3.0,40,0.00,,,0.00,Wunderground v.1.15,2013-03-30 21:45:00,
2013-03-30 17:55:00,51.5,29.7,30.07,ENE,67,1.0,2.0,43,0.00,,,0.00,Wunderground v.1.15,2013-03-30 21:55:00,
2013-03-30 18:01:00,50.6,29.5,30.07,SE,125,2.0,3.0,44,0.00,,,0.00,Wunderground v.1.15,2013-03-30 22:01:00,
2013-03-30 18:10:00,49.8,29.8,30.06,SW,232,1.0,1.0,46,0.00,,,0.00,Wunderground v.1.15,2013-03-30 22:10:00,
2013-03-30 18:16:00,49.4,30.0,30.07,SE,132,1.0,1.0,47,0.00,,,0.00,Wunderground v.1.15,2013-03-30 22:16:00,
2013-03-30 18:25:00,49.0,30.7,30.06,East,98,1.0,2.0,49,0.00,,,0.00,Wunderground v.1.15,2013-03-30 22:25:00,
2013-03-30 18:31:00,48.9,30.1,30.06,East,88,1.0,1.0,48,0.00,,,0.00,Wunderground v.1.15,2013-03-30 22:31:00,
2013-03-30 18:40:00,48.4,29.6,30.06,East,82,1.0,1.0,48,0.00,,,0.00,Wunderground v.1.15,2013-03-30 22:40:00,
2013-03-30 18:50:00,48.3,29.5,30.06,ENE,69,0.0,0.0,48,0.00,,,0.00,Wunderground v.1.15,2013-03-30 22:50:00,
2013-03-30 18:56:00,48.2,29.9,30.06,East,94,0.0,0.0,49,0.00,,,0.00,Wunderground v.1.15,2013-03-30 22:56:00,
2013-03-30 19:05:00,48.1,29.8,30.06,East,82,0.0,1.0,49,0.00,,,0.00,Wunderground v.1.15,2013-03-30 23:05:00,
2013-03-30 19:15:00,47.6,29.4,30.06,East,90,1.0,1.0,49,0.00,,,0.00,Wunderground v.1.15,2013-03-30 23:15:00,
2013-03-30 19:25:00,47.4,28.2,30.06,ESE,123,0.0,1.0,47,0.00,,,0.00,Wunderground v.1.15,2013-03-30 23:25:00,
2013-03-30 19:31:00,47.2,27.5,30.06,ESE,123,0.0,1.0,46,0.00,,,0.00,Wunderground v.1.15,2013-03-30 23:31:00,
2013-03-30 19:40:00,46.6,27.9,30.06,ESE,118,1.0,1.0,48,0.00,,,0.00,Wunderground v.1.15,2013-03-30 23:40:00,
2013-03-30 19:45:00,46.4,28.3,30.06,East,79,0.0,1.0,49,0.00,,,0.00,Wunderground v.1.15,2013-03-30 23:45:00,
2013-03-30 19:55:00,45.9,27.8,30.06,East,79,0.0,1.0,49,0.00,,,0.00,Wunderground v.1.15,2013-03-30 23:55:00,
2013-03-30 20:05:00,45.6,29.0,30.05,East,90,0.0,0.0,52,0.00,,,0.00,Wunderground v.1.15,2013-03-31 00:05:00,
2013-03-30 20:16:00,45.4,29.7,30.05,SSW,203,0.0,0.0,54,0.00,,,0.00,Wunderground v.1.15,2013-03-31 00:16:00,
2013-03-30 20:25:00,45.2,30.4,30.05,South,175,0.0,0.0,56,0.00,,,0.00,Wunderground v.1.15,2013-03-31 00:25:00,
2013-03-30 20:35:00,44.9,31.4,30.05,ESE,119,0.0,0.0,59,0.00,,,0.00,Wunderground v.1.15,2013-03-31 00:35:00,
2013-03-30 20:45:00,44.9,32.3,30.04,ESE,119,0.0,0.0,61,0.00,,,0.00,Wunderground v.1.15,2013-03-31 00:45:00,
2013-03-30 20:50:00,45.0,32.8,30.04,ESE,119,0.0,0.0,62,0.00,,,0.00,Wunderground v.1.15,2013-03-31 00:50:00,
2013-03-30 21:00:00,45.0,33.2,30.04,ESE,119,0.0,0.0,63,0.00,,,0.00,Wunderground v.1.15,2013-03-31 01:00:00,
2013-03-30 21:05:00,44.7,33.6,30.04,ESE,119,0.0,1.0,65,0.00,,,0.00,Wunderground v.1.15,2013-03-31 01:05:00,
2013-03-30 21:15:00,43.8,33.9,30.04,ESE,119,0.0,1.0,68,0.00,,,0.00,Wunderground v.1.15,2013-03-31 01:15:00,
2013-03-30 21:20:00,43.5,33.6,30.04,ESE,119,0.0,0.0,68,0.00,,,0.00,Wunderground v.1.15,2013-03-31 01:20:00,
2013-03-30 21:31:00,43.2,33.7,30.03,ESE,119,0.0,0.0,69,0.00,,,0.00,Wunderground v.1.15,2013-03-31 01:31:00,
2013-03-30 21:40:00,43.1,34.0,30.03,ESE,119,0.0,0.0,70,0.00,,,0.00,Wunderground v.1.15,2013-03-31 01:40:00,
2013-03-30 21:45:00,43.0,33.9,30.03,ESE,119,0.0,0.0,70,0.00,,,0.00,Wunderground v.1.15,2013-03-31 01:45:00,
2013-03-30 21:56:00,42.8,34.0,30.03,ESE,119,0.0,0.0,71,0.00,,,0.00,Wunderground v.1.15,2013-03-31 01:56:00,
2013-03-30 22:01:00,42.7,34.3,30.03,ESE,119,0.0,0.0,72,0.00,,,0.00,Wunderground v.1.15,2013-03-31 02:01:00,
2013-03-30 22:11:00,42.3,34.3,30.02,East,94,0.0,0.0,73,0.00,,,0.00,Wunderground v.1.15,2013-03-31 02:11:00,
2013-03-30 22:20:00,41.9,34.6,30.02,East,94,0.0,0.0,75,0.00,,,0.00,Wunderground v.1.15,2013-03-31 02:20:00,
2013-03-30 22:26:00,41.6,34.3,30.01,East,94,0.0,0.0,75,0.00,,,0.00,Wunderground v.1.15,2013-03-31 02:26:00,
2013-03-30 22:35:00,40.9,34.2,30.01,East,94,0.0,0.0,77,0.00,,,0.00,Wunderground v.1.15,2013-03-31 02:35:00,
2013-03-30 22:40:00,40.7,34.4,30.01,East,94,0.0,0.0,78,0.00,,,0.00,Wunderground v.1.15,2013-03-31 02:40:00,
2013-03-30 22:50:00,40.8,34.8,30.01,East,86,0.0,0.0,79,0.00,,,0.00,Wunderground v.1.15,2013-03-31 02:50:00,
2013-03-30 22:55:00,40.9,34.6,30.01,East,85,0.0,0.0,78,0.00,,,0.00,Wunderground v.1.15,2013-03-31 02:55:00,
2013-03-30 23:01:00,40.9,34.6,30.00,East,85,0.0,0.0,78,0.00,,,0.00,Wunderground v.1.15,2013-03-31 03:01:00,
2013-03-30 23:10:00,40.1,34.1,30.00,East,85,0.0,0.0,79,0.00,,,0.00,Wunderground v.1.15,2013-03-31 03:10:00,
2013-03-30 23:20:00,39.8,34.1,30.00,East,86,0.0,0.0,80,0.00,,,0.00,Wunderground v.1.15,2013-03-31 03:20:00,
2013-03-30 23:25:00,39.8,34.1,30.00,SE,133,0.0,0.0,80,0.00,,,0.00,Wunderground v.1.15,2013-03-31 03:25:00,
2013-03-30 23:35:00,39.7,34.3,29.99,SE,131,0.0,0.0,81,0.00,,,0.00,Wunderground v.1.15,2013-03-31 03:35:00,
2013-03-30 23:40:00,39.6,34.2,29.99,SE,131,0.0,0.0,81,0.00,,,0.00,Wunderground v.1.15,2013-03-31 03:40:00,
2013-03-30 23:50:00,39.2,33.9,29.99,SE,131,0.0,0.0,81,0.00,,,0.00,Wunderground v.1.15,2013-03-31 03:50:00,
2013-03-30 23:56:00,39.0,33.7,29.99,SE,131,0.0,0.0,81,0.00,,,0.00,Wunderground v.1.15,2013-03-31 03:56:00,